iso_date,Year,Hour,Min,DOY,POS_DOY,Lat,Lon,BP,Ts,Ta,has_bp,has_ts,has_ta,BuoyID,Buoy_Type,Buoy_Owner,Logistics,Hemisphere
2021-07-28T11:10:01Z,2021,11,10,209.4653,209.4653,81.597,-16.6572,-999.0,15.2,-999.0,no,yes,no,300234066896220,GPS_Tracker,AWI,Polarstern,North
2021-07-28T12:00:00Z,2021,12,0,209.5,209.5,81.597,-16.6572,-999.0,15.1,-999.0,no,yes,no,300234066896220,GPS_Tracker,AWI,Polarstern,North
2021-07-28T13:00:02Z,2021,13,0,209.5417,209.5417,81.597,-16.6572,-999.0,14.7,-999.0,no,yes,no,300234066896220,GPS_Tracker,AWI,Polarstern,North
2021-07-28T13:59:57Z,2021,14,0,209.5833,209.5833,81.597,-16.6572,-999.0,13.2,-999.0,no,yes,no,300234066896220,GPS_Tracker,AWI,Polarstern,North
2021-07-28T15:00:00Z,2021,15,0,209.625,209.625,81.597,-16.6572,-999.0,12.2,-999.0,no,yes,no,300234066896220,GPS_Tracker,AWI,Polarstern,North
2022-08-15T10:00:02Z,2022,10,0,227.4167,227.4167,86.868,-21.431,-999.0,1.4,-999.0,no,yes,no,300234066896220,GPS_Tracker,AWI,Polarstern,North
2022-08-15T10:59:57Z,2022,11,0,227.4583,227.4583,86.8678,-21.3808,-999.0,1.5,-999.0,no,yes,no,300234066896220,GPS_Tracker,AWI,Polarstern,North
2022-08-15T12:00:00Z,2022,12,0,227.5,227.5,86.8674,-21.329,-999.0,1.5,-999.0,no,yes,no,300234066896220,GPS_Tracker,AWI,Polarstern,North
2022-08-15T13:00:02Z,2022,13,0,227.5417,227.5417,86.8672,-21.2756,-999.0,1.6,-999.0,no,yes,no,300234066896220,GPS_Tracker,AWI,Polarstern,North
2022-08-15T13:59:57Z,2022,14,0,227.5833,227.5833,86.867,-21.2226,-999.0,1.7,-999.0,no,yes,no,300234066896220,GPS_Tracker,AWI,Polarstern,North
2022-08-15T15:00:00Z,2022,15,0,227.625,227.625,86.8668,-21.1706,-999.0,1.7,-999.0,no,yes,no,300234066896220,GPS_Tracker,AWI,Polarstern,North
2022-08-15T16:00:02Z,2022,16,0,227.6667,227.6667,86.8666,-21.1212,-999.0,1.8,-999.0,no,yes,no,300234066896220,GPS_Tracker,AWI,Polarstern,North
2022-08-15T16:59:57Z,2022,17,0,227.7083,227.7083,86.8666,-21.0758,-999.0,1.9,-999.0,no,yes,no,300234066896220,GPS_Tracker,AWI,Polarstern,North
2022-08-15T18:00:00Z,2022,18,0,227.75,227.75,86.8668,-21.0344,-999.0,2.1,-999.0,no,yes,no,300234066896220,GPS_Tracker,AWI,Polarstern,North
2022-08-15T19:00:02Z,2022,19,0,227.7917,227.7917,86.8668,-20.9962,-999.0,1.9,-999.0,no,yes,no,300234066896220,GPS_Tracker,AWI,Polarstern,North
2022-08-15T19:59:57Z,2022,20,0,227.8333,227.8333,86.8666,-20.9602,-999.0,1.7,-999.0,no,yes,no,300234066896220,GPS_Tracker,AWI,Polarstern,North
2022-08-15T21:00:00Z,2022,21,0,227.875,227.875,86.8666,-20.925,-999.0,1.5,-999.0,no,yes,no,300234066896220,GPS_Tracker,AWI,Polarstern,North
2022-08-15T22:00:02Z,2022,22,0,227.9167,227.9167,86.8666,-20.8912,-999.0,1.4,-999.0,no,yes,no,300234066896220,GPS_Tracker,AWI,Polarstern,North
2022-08-15T22:59:57Z,2022,23,0,227.9583,227.9583,86.8666,-20.8576,-999.0,1.5,-999.0,no,yes,no,300234066896220,GPS_Tracker,AWI,Polarstern,North
2022-08-16T00:00:00Z,2022,0,0,228.0,228.0,86.8668,-20.8254,-999.0,1.6,-999.0,no,yes,no,300234066896220,GPS_Tracker,AWI,Polarstern,North
2022-08-16T01:00:02Z,2022,1,0,228.0417,228.0417,86.867,-20.794,-999.0,0.9,-999.0,no,yes,no,300234066896220,GPS_Tracker,AWI,Polarstern,North
2022-08-16T01:59:57Z,2022,2,0,228.0833,228.0833,86.8674,-20.7586,-999.0,0.9,-999.0,no,yes,no,300234066896220,GPS_Tracker,AWI,Polarstern,North
2022-08-16T03:00:00Z,2022,3,0,228.125,228.125,86.868,-20.7214,-999.0,0.7,-999.0,no,yes,no,300234066896220,GPS_Tracker,AWI,Polarstern,North
2022-08-16T04:00:02Z,2022,4,0,228.1667,228.1667,86.869,-20.6808,-999.0,0.8,-999.0,no,yes,no,300234066896220,GPS_Tracker,AWI,Polarstern,North
2022-08-16T04:59:57Z,2022,5,0,228.2083,228.2083,86.8702,-20.6358,-999.0,0.6,-999.0,no,yes,no,300234066896220,GPS_Tracker,AWI,Polarstern,North
2022-08-16T06:00:00Z,2022,6,0,228.25,228.25,86.8718,-20.5846,-999.0,0.9,-999.0,no,yes,no,300234066896220,GPS_Tracker,AWI,Polarstern,North
2022-08-16T07:00:02Z,2022,7,0,228.2917,228.2917,86.8736,-20.5254,-999.0,1.8,-999.0,no,yes,no,300234066896220,GPS_Tracker,AWI,Polarstern,North
2022-08-16T07:59:57Z,2022,8,0,228.3333,228.3333,86.8756,-20.4572,-999.0,1.3,-999.0,no,yes,no,300234066896220,GPS_Tracker,AWI,Polarstern,North
2022-08-16T09:00:00Z,2022,9,0,228.375,228.375,86.878,-20.3786,-999.0,0.9,-999.0,no,yes,no,300234066896220,GPS_Tracker,AWI,Polarstern,North
2022-08-16T10:00:02Z,2022,10,0,228.4167,228.4167,86.8806,-20.291,-999.0,1.0,-999.0,no,yes,no,300234066896220,GPS_Tracker,AWI,Polarstern,North
2022-08-16T10:59:57Z,2022,11,0,228.4583,228.4583,86.8832,-20.1962,-999.0,0.7,-999.0,no,yes,no,300234066896220,GPS_Tracker,AWI,Polarstern,North
2022-08-16T12:00:00Z,2022,12,0,228.5,228.5,86.8858,-20.097,-999.0,0.5,-999.0,no,yes,no,300234066896220,GPS_Tracker,AWI,Polarstern,North
2022-08-16T13:00:02Z,2022,13,0,228.5417,228.5417,86.888,-19.9946,-999.0,0.6,-999.0,no,yes,no,300234066896220,GPS_Tracker,AWI,Polarstern,North
2022-08-16T13:59:57Z,2022,14,0,228.5833,228.5833,86.8902,-19.8926,-999.0,0.4,-999.0,no,yes,no,300234066896220,GPS_Tracker,AWI,Polarstern,North
2022-08-16T15:00:00Z,2022,15,0,228.625,228.625,86.8922,-19.7952,-999.0,0.5,-999.0,no,yes,no,300234066896220,GPS_Tracker,AWI,Polarstern,North
2022-08-16T16:00:02Z,2022,16,0,228.6667,228.6667,86.8942,-19.7074,-999.0,0.7,-999.0,no,yes,no,300234066896220,GPS_Tracker,AWI,Polarstern,North
2022-08-16T16:59:57Z,2022,17,0,228.7083,228.7083,86.8968,-19.6302,-999.0,0.7,-999.0,no,yes,no,300234066896220,GPS_Tracker,AWI,Polarstern,North
2022-08-16T18:00:00Z,2022,18,0,228.75,228.75,86.8996,-19.5612,-999.0,0.5,-999.0,no,yes,no,300234066896220,GPS_Tracker,AWI,Polarstern,North
2022-08-16T19:00:02Z,2022,19,0,228.7917,228.7917,86.9026,-19.4988,-999.0,0.4,-999.0,no,yes,no,300234066896220,GPS_Tracker,AWI,Polarstern,North
2022-08-16T19:59:57Z,2022,20,0,228.8333,228.8333,86.906,-19.439,-999.0,0.4,-999.0,no,yes,no,300234066896220,GPS_Tracker,AWI,Polarstern,North
2022-08-16T21:00:00Z,2022,21,0,228.875,228.875,86.9092,-19.3812,-999.0,0.5,-999.0,no,yes,no,300234066896220,GPS_Tracker,AWI,Polarstern,North
2022-08-16T22:00:02Z,2022,22,0,228.9167,228.9167,86.9122,-19.3218,-999.0,0.4,-999.0,no,yes,no,300234066896220,GPS_Tracker,AWI,Polarstern,North
2022-08-16T22:59:57Z,2022,23,0,228.9583,228.9583,86.9146,-19.26,-999.0,0.3,-999.0,no,yes,no,300234066896220,GPS_Tracker,AWI,Polarstern,North
2022-08-17T00:00:00Z,2022,0,0,229.0,229.0,86.916,-19.204,-999.0,0.3,-999.0,no,yes,no,300234066896220,GPS_Tracker,AWI,Polarstern,North
2022-08-17T01:00:02Z,2022,1,0,229.0417,229.0417,86.9166,-19.1614,-999.0,1.1,-999.0,no,yes,no,300234066896220,GPS_Tracker,AWI,Polarstern,North
2022-08-17T01:59:57Z,2022,2,0,229.0833,229.0833,86.9176,-19.1456,-999.0,0.5,-999.0,no,yes,no,300234066896220,GPS_Tracker,AWI,Polarstern,North
2022-08-17T03:00:00Z,2022,3,0,229.125,229.125,86.9194,-19.1424,-999.0,0.6,-999.0,no,yes,no,300234066896220,GPS_Tracker,AWI,Polarstern,North
2022-08-17T04:00:02Z,2022,4,0,229.1667,229.1667,86.9216,-19.1402,-999.0,1.0,-999.0,no,yes,no,300234066896220,GPS_Tracker,AWI,Polarstern,North
2022-08-17T04:59:57Z,2022,5,0,229.2083,229.2083,86.924,-19.1382,-999.0,1.1,-999.0,no,yes,no,300234066896220,GPS_Tracker,AWI,Polarstern,North
2022-08-17T06:00:00Z,2022,6,0,229.25,229.25,86.9268,-19.145,-999.0,1.3,-999.0,no,yes,no,300234066896220,GPS_Tracker,AWI,Polarstern,North
2022-08-17T07:00:02Z,2022,7,0,229.2917,229.2917,86.9298,-19.1528,-999.0,1.4,-999.0,no,yes,no,300234066896220,GPS_Tracker,AWI,Polarstern,North
2022-08-17T07:59:57Z,2022,8,0,229.3333,229.3333,86.9328,-19.1614,-999.0,1.5,-999.0,no,yes,no,300234066896220,GPS_Tracker,AWI,Polarstern,North
2022-08-17T09:00:00Z,2022,9,0,229.375,229.375,86.9362,-19.1708,-999.0,1.6,-999.0,no,yes,no,300234066896220,GPS_Tracker,AWI,Polarstern,North
2022-08-17T10:00:02Z,2022,10,0,229.4167,229.4167,86.9396,-19.1732,-999.0,1.7,-999.0,no,yes,no,300234066896220,GPS_Tracker,AWI,Polarstern,North
2022-08-17T10:59:57Z,2022,11,0,229.4583,229.4583,86.9428,-19.1728,-999.0,1.7,-999.0,no,yes,no,300234066896220,GPS_Tracker,AWI,Polarstern,North
2022-08-17T12:00:00Z,2022,12,0,229.5,229.5,86.9458,-19.1688,-999.0,1.8,-999.0,no,yes,no,300234066896220,GPS_Tracker,AWI,Polarstern,North
2022-08-17T13:00:02Z,2022,13,0,229.5417,229.5417,86.9486,-19.161,-999.0,1.8,-999.0,no,yes,no,300234066896220,GPS_Tracker,AWI,Polarstern,North
2022-08-17T13:59:57Z,2022,14,0,229.5833,229.5833,86.9512,-19.152,-999.0,1.8,-999.0,no,yes,no,300234066896220,GPS_Tracker,AWI,Polarstern,North
2022-08-17T15:00:00Z,2022,15,0,229.625,229.625,86.9536,-19.1478,-999.0,1.8,-999.0,no,yes,no,300234066896220,GPS_Tracker,AWI,Polarstern,North
2022-08-17T16:00:02Z,2022,16,0,229.6667,229.6667,86.9558,-19.1488,-999.0,1.8,-999.0,no,yes,no,300234066896220,GPS_Tracker,AWI,Polarstern,North
2022-08-17T16:59:57Z,2022,17,0,229.7083,229.7083,86.9576,-19.1524,-999.0,1.9,-999.0,no,yes,no,300234066896220,GPS_Tracker,AWI,Polarstern,North
2022-08-17T18:00:00Z,2022,18,0,229.75,229.75,86.9594,-19.1586,-999.0,1.6,-999.0,no,yes,no,300234066896220,GPS_Tracker,AWI,Polarstern,North
2022-08-17T19:00:02Z,2022,19,0,229.7917,229.7917,86.9612,-19.1672,-999.0,1.5,-999.0,no,yes,no,300234066896220,GPS_Tracker,AWI,Polarstern,North
2022-08-17T19:59:57Z,2022,20,0,229.8333,229.8333,86.9628,-19.1774,-999.0,1.2,-999.0,no,yes,no,300234066896220,GPS_Tracker,AWI,Polarstern,North
2022-08-17T21:00:00Z,2022,21,0,229.875,229.875,86.9644,-19.1864,-999.0,1.0,-999.0,no,yes,no,300234066896220,GPS_Tracker,AWI,Polarstern,North
2022-08-17T22:00:02Z,2022,22,0,229.9167,229.9167,86.9656,-19.1908,-999.0,0.5,-999.0,no,yes,no,300234066896220,GPS_Tracker,AWI,Polarstern,North
2022-08-17T22:59:57Z,2022,23,0,229.9583,229.9583,86.9664,-19.192,-999.0,0.1,-999.0,no,yes,no,300234066896220,GPS_Tracker,AWI,Polarstern,North
2022-08-18T00:00:00Z,2022,0,0,230.0,230.0,86.9668,-19.1958,-999.0,0.2,-999.0,no,yes,no,300234066896220,GPS_Tracker,AWI,Polarstern,North
2022-08-18T01:00:02Z,2022,1,0,230.0417,230.0417,86.9666,-19.2084,-999.0,0.4,-999.0,no,yes,no,300234066896220,GPS_Tracker,AWI,Polarstern,North
2022-08-18T01:59:57Z,2022,2,0,230.0833,230.0833,86.966,-19.232,-999.0,0.8,-999.0,no,yes,no,300234066896220,GPS_Tracker,AWI,Polarstern,North
2022-08-18T03:00:00Z,2022,3,0,230.125,230.125,86.9652,-19.2632,-999.0,1.1,-999.0,no,yes,no,300234066896220,GPS_Tracker,AWI,Polarstern,North
2022-08-18T04:00:02Z,2022,4,0,230.1667,230.1667,86.9644,-19.3034,-999.0,0.7,-999.0,no,yes,no,300234066896220,GPS_Tracker,AWI,Polarstern,North
2022-08-18T04:59:57Z,2022,5,0,230.2083,230.2083,86.9638,-19.355,-999.0,0.3,-999.0,no,yes,no,300234066896220,GPS_Tracker,AWI,Polarstern,North
2022-08-18T06:00:00Z,2022,6,0,230.25,230.25,86.9636,-19.4054,-999.0,1.0,-999.0,no,yes,no,300234066896220,GPS_Tracker,AWI,Polarstern,North
2022-08-18T07:00:02Z,2022,7,0,230.2917,230.2917,86.9634,-19.4554,-999.0,1.8,-999.0,no,yes,no,300234066896220,GPS_Tracker,AWI,Polarstern,North
2022-08-18T07:59:57Z,2022,8,0,230.3333,230.3333,86.9636,-19.5042,-999.0,1.7,-999.0,no,yes,no,300234066896220,GPS_Tracker,AWI,Polarstern,North
2022-08-18T09:00:00Z,2022,9,0,230.375,230.375,86.9638,-19.5482,-999.0,0.8,-999.0,no,yes,no,300234066896220,GPS_Tracker,AWI,Polarstern,North
2022-08-18T10:00:02Z,2022,10,0,230.4167,230.4167,86.9644,-19.5946,-999.0,0.3,-999.0,no,yes,no,300234066896220,GPS_Tracker,AWI,Polarstern,North
2022-08-18T10:59:57Z,2022,11,0,230.4583,230.4583,86.965,-19.6434,-999.0,0.0,-999.0,no,yes,no,300234066896220,GPS_Tracker,AWI,Polarstern,North
2022-08-18T12:00:00Z,2022,12,0,230.5,230.5,86.9654,-19.6876,-999.0,-0.1,-999.0,no,yes,no,300234066896220,GPS_Tracker,AWI,Polarstern,North
2022-08-18T13:00:02Z,2022,13,0,230.5417,230.5417,86.9654,-19.7296,-999.0,0.1,-999.0,no,yes,no,300234066896220,GPS_Tracker,AWI,Polarstern,North
2022-08-18T13:59:57Z,2022,14,0,230.5833,230.5833,86.9648,-19.7738,-999.0,0.2,-999.0,no,yes,no,300234066896220,GPS_Tracker,AWI,Polarstern,North
2022-08-18T15:00:00Z,2022,15,0,230.625,230.625,86.9638,-19.8218,-999.0,0.5,-999.0,no,yes,no,300234066896220,GPS_Tracker,AWI,Polarstern,North
2022-08-18T16:00:02Z,2022,16,0,230.6667,230.6667,86.9624,-19.8704,-999.0,0.8,-999.0,no,yes,no,300234066896220,GPS_Tracker,AWI,Polarstern,North
2022-08-18T16:59:57Z,2022,17,0,230.7083,230.7083,86.961,-19.9204,-999.0,1.1,-999.0,no,yes,no,300234066896220,GPS_Tracker,AWI,Polarstern,North
2022-08-18T18:00:00Z,2022,18,0,230.75,230.75,86.959,-19.9806,-999.0,1.2,-999.0,no,yes,no,300234066896220,GPS_Tracker,AWI,Polarstern,North
2022-08-18T19:00:02Z,2022,19,0,230.7917,230.7917,86.9574,-20.0362,-999.0,1.3,-999.0,no,yes,no,300234066896220,GPS_Tracker,AWI,Polarstern,North
2022-08-18T19:59:57Z,2022,20,0,230.8333,230.8333,86.9558,-20.0896,-999.0,1.2,-999.0,no,yes,no,300234066896220,GPS_Tracker,AWI,Polarstern,North
2022-08-18T21:00:00Z,2022,21,0,230.875,230.875,86.9538,-20.1458,-999.0,1.2,-999.0,no,yes,no,300234066896220,GPS_Tracker,AWI,Polarstern,North
2022-08-18T22:00:02Z,2022,22,0,230.9167,230.9167,86.9516,-20.1972,-999.0,1.0,-999.0,no,yes,no,300234066896220,GPS_Tracker,AWI,Polarstern,North
2022-08-18T22:59:57Z,2022,23,0,230.9583,230.9583,86.9488,-20.2448,-999.0,1.1,-999.0,no,yes,no,300234066896220,GPS_Tracker,AWI,Polarstern,North
2022-08-19T00:00:00Z,2022,0,0,231.0,231.0,86.9458,-20.2868,-999.0,1.0,-999.0,no,yes,no,300234066896220,GPS_Tracker,AWI,Polarstern,North
2022-08-19T01:00:02Z,2022,1,0,231.0417,231.0417,86.9416,-20.3314,-999.0,0.8,-999.0,no,yes,no,300234066896220,GPS_Tracker,AWI,Polarstern,North
2022-08-19T01:59:57Z,2022,2,0,231.0833,231.0833,86.937,-20.3812,-999.0,0.5,-999.0,no,yes,no,300234066896220,GPS_Tracker,AWI,Polarstern,North
2022-08-19T03:00:00Z,2022,3,0,231.125,231.125,86.9318,-20.424,-999.0,0.3,-999.0,no,yes,no,300234066896220,GPS_Tracker,AWI,Polarstern,North
2022-08-19T04:00:02Z,2022,4,0,231.1667,231.1667,86.9264,-20.4718,-999.0,0.1,-999.0,no,yes,no,300234066896220,GPS_Tracker,AWI,Polarstern,North
2022-08-19T04:59:57Z,2022,5,0,231.2083,231.2083,86.92,-20.55,-999.0,0.0,-999.0,no,yes,no,300234066896220,GPS_Tracker,AWI,Polarstern,North
2022-08-19T06:00:00Z,2022,6,0,231.25,231.25,86.9136,-20.6482,-999.0,-0.1,-999.0,no,yes,no,300234066896220,GPS_Tracker,AWI,Polarstern,North
2022-08-19T07:00:02Z,2022,7,0,231.2917,231.2917,86.9076,-20.7444,-999.0,-0.1,-999.0,no,yes,no,300234066896220,GPS_Tracker,AWI,Polarstern,North
2022-08-19T07:59:57Z,2022,8,0,231.3333,231.3333,86.9022,-20.8314,-999.0,-0.1,-999.0,no,yes,no,300234066896220,GPS_Tracker,AWI,Polarstern,North
2022-08-19T09:00:00Z,2022,9,0,231.375,231.375,86.8974,-20.9056,-999.0,-0.2,-999.0,no,yes,no,300234066896220,GPS_Tracker,AWI,Polarstern,North
2022-08-19T10:00:02Z,2022,10,0,231.4167,231.4167,86.893,-20.9672,-999.0,-0.1,-999.0,no,yes,no,300234066896220,GPS_Tracker,AWI,Polarstern,North
2022-08-19T10:59:57Z,2022,11,0,231.4583,231.4583,86.8886,-21.0192,-999.0,0.0,-999.0,no,yes,no,300234066896220,GPS_Tracker,AWI,Polarstern,North
2022-08-19T12:00:00Z,2022,12,0,231.5,231.5,86.8836,-21.0656,-999.0,0.3,-999.0,no,yes,no,300234066896220,GPS_Tracker,AWI,Polarstern,North
2022-08-19T13:00:02Z,2022,13,0,231.5417,231.5417,86.878,-21.1106,-999.0,0.6,-999.0,no,yes,no,300234066896220,GPS_Tracker,AWI,Polarstern,North
2022-08-19T13:59:57Z,2022,14,0,231.5833,231.5833,86.872,-21.159,-999.0,0.9,-999.0,no,yes,no,300234066896220,GPS_Tracker,AWI,Polarstern,North
2022-08-19T15:00:00Z,2022,15,0,231.625,231.625,86.8654,-21.2074,-999.0,1.0,-999.0,no,yes,no,300234066896220,GPS_Tracker,AWI,Polarstern,North
2022-08-19T16:00:02Z,2022,16,0,231.6667,231.6667,86.8588,-21.2566,-999.0,1.0,-999.0,no,yes,no,300234066896220,GPS_Tracker,AWI,Polarstern,North
2022-08-19T16:59:57Z,2022,17,0,231.7083,231.7083,86.8522,-21.3002,-999.0,1.0,-999.0,no,yes,no,300234066896220,GPS_Tracker,AWI,Polarstern,North
2022-08-19T18:00:00Z,2022,18,0,231.75,231.75,86.8456,-21.3434,-999.0,0.9,-999.0,no,yes,no,300234066896220,GPS_Tracker,AWI,Polarstern,North
2022-08-19T19:00:02Z,2022,19,0,231.7917,231.7917,86.839,-21.3878,-999.0,0.9,-999.0,no,yes,no,300234066896220,GPS_Tracker,AWI,Polarstern,North
2022-08-19T19:59:57Z,2022,20,0,231.8333,231.8333,86.8322,-21.4322,-999.0,0.8,-999.0,no,yes,no,300234066896220,GPS_Tracker,AWI,Polarstern,North
2022-08-19T21:00:00Z,2022,21,0,231.875,231.875,86.826,-21.4714,-999.0,0.8,-999.0,no,yes,no,300234066896220,GPS_Tracker,AWI,Polarstern,North
2022-08-19T22:00:02Z,2022,22,0,231.9167,231.9167,86.82,-21.5008,-999.0,0.8,-999.0,no,yes,no,300234066896220,GPS_Tracker,AWI,Polarstern,North
2022-08-19T22:59:57Z,2022,23,0,231.9583,231.9583,86.8144,-21.525,-999.0,0.8,-999.0,no,yes,no,300234066896220,GPS_Tracker,AWI,Polarstern,North
2022-08-20T00:00:00Z,2022,0,0,232.0,232.0,86.8088,-21.5432,-999.0,0.8,-999.0,no,yes,no,300234066896220,GPS_Tracker,AWI,Polarstern,North
2022-08-20T01:00:02Z,2022,1,0,232.0417,232.0417,86.8026,-21.5584,-999.0,0.8,-999.0,no,yes,no,300234066896220,GPS_Tracker,AWI,Polarstern,North
2022-08-20T01:59:57Z,2022,2,0,232.0833,232.0833,86.796,-21.5722,-999.0,0.8,-999.0,no,yes,no,300234066896220,GPS_Tracker,AWI,Polarstern,North
2022-08-20T03:00:00Z,2022,3,0,232.125,232.125,86.7892,-21.5902,-999.0,0.8,-999.0,no,yes,no,300234066896220,GPS_Tracker,AWI,Polarstern,North
2022-08-20T04:00:02Z,2022,4,0,232.1667,232.1667,86.7826,-21.6054,-999.0,0.8,-999.0,no,yes,no,300234066896220,GPS_Tracker,AWI,Polarstern,North
2022-08-20T04:59:57Z,2022,5,0,232.2083,232.2083,86.7764,-21.6192,-999.0,0.8,-999.0,no,yes,no,300234066896220,GPS_Tracker,AWI,Polarstern,North
2022-08-20T06:00:00Z,2022,6,0,232.25,232.25,86.7704,-21.6334,-999.0,0.8,-999.0,no,yes,no,300234066896220,GPS_Tracker,AWI,Polarstern,North
2022-08-20T07:00:02Z,2022,7,0,232.2917,232.2917,86.765,-21.6452,-999.0,0.8,-999.0,no,yes,no,300234066896220,GPS_Tracker,AWI,Polarstern,North
2022-08-20T07:59:57Z,2022,8,0,232.3333,232.3333,86.7596,-21.6554,-999.0,0.8,-999.0,no,yes,no,300234066896220,GPS_Tracker,AWI,Polarstern,North
2022-08-20T09:00:00Z,2022,9,0,232.375,232.375,86.7546,-21.6624,-999.0,0.8,-999.0,no,yes,no,300234066896220,GPS_Tracker,AWI,Polarstern,North
2022-08-20T10:00:02Z,2022,10,0,232.4167,232.4167,86.7496,-21.6676,-999.0,0.8,-999.0,no,yes,no,300234066896220,GPS_Tracker,AWI,Polarstern,North
2022-08-20T10:59:57Z,2022,11,0,232.4583,232.4583,86.7446,-21.6732,-999.0,0.8,-999.0,no,yes,no,300234066896220,GPS_Tracker,AWI,Polarstern,North
2022-08-20T12:00:00Z,2022,12,0,232.5,232.5,86.7396,-21.679,-999.0,0.8,-999.0,no,yes,no,300234066896220,GPS_Tracker,AWI,Polarstern,North
2022-08-20T13:00:02Z,2022,13,0,232.5417,232.5417,86.735,-21.6828,-999.0,0.8,-999.0,no,yes,no,300234066896220,GPS_Tracker,AWI,Polarstern,North
2022-08-20T13:59:57Z,2022,14,0,232.5833,232.5833,86.7308,-21.6858,-999.0,0.8,-999.0,no,yes,no,300234066896220,GPS_Tracker,AWI,Polarstern,North
2022-08-20T15:00:00Z,2022,15,0,232.625,232.625,86.7268,-21.685,-999.0,0.8,-999.0,no,yes,no,300234066896220,GPS_Tracker,AWI,Polarstern,North
2022-08-20T16:00:02Z,2022,16,0,232.6667,232.6667,86.723,-21.681,-999.0,0.8,-999.0,no,yes,no,300234066896220,GPS_Tracker,AWI,Polarstern,North
2022-08-20T16:59:57Z,2022,17,0,232.7083,232.7083,86.7194,-21.6762,-999.0,0.8,-999.0,no,yes,no,300234066896220,GPS_Tracker,AWI,Polarstern,North
2022-08-20T18:00:00Z,2022,18,0,232.75,232.75,86.7158,-21.6708,-999.0,0.8,-999.0,no,yes,no,300234066896220,GPS_Tracker,AWI,Polarstern,North
2022-08-20T19:00:02Z,2022,19,0,232.7917,232.7917,86.7124,-21.6664,-999.0,0.8,-999.0,no,yes,no,300234066896220,GPS_Tracker,AWI,Polarstern,North
2022-08-20T19:59:57Z,2022,20,0,232.8333,232.8333,86.7088,-21.6648,-999.0,0.8,-999.0,no,yes,no,300234066896220,GPS_Tracker,AWI,Polarstern,North
2022-08-20T21:00:00Z,2022,21,0,232.875,232.875,86.7054,-21.6674,-999.0,0.8,-999.0,no,yes,no,300234066896220,GPS_Tracker,AWI,Polarstern,North
2022-08-20T22:00:02Z,2022,22,0,232.9167,232.9167,86.7022,-21.673,-999.0,0.8,-999.0,no,yes,no,300234066896220,GPS_Tracker,AWI,Polarstern,North
2022-08-20T22:59:57Z,2022,23,0,232.9583,232.9583,86.6996,-21.6806,-999.0,0.8,-999.0,no,yes,no,300234066896220,GPS_Tracker,AWI,Polarstern,North
2022-08-21T00:00:00Z,2022,0,0,233.0,233.0,86.6972,-21.6904,-999.0,0.8,-999.0,no,yes,no,300234066896220,GPS_Tracker,AWI,Polarstern,North
2022-08-21T01:00:02Z,2022,1,0,233.0417,233.0417,86.6946,-21.6972,-999.0,0.8,-999.0,no,yes,no,300234066896220,GPS_Tracker,AWI,Polarstern,North
2022-08-21T01:59:57Z,2022,2,0,233.0833,233.0833,86.692,-21.6978,-999.0,0.7,-999.0,no,yes,no,300234066896220,GPS_Tracker,AWI,Polarstern,North
2022-08-21T03:00:00Z,2022,3,0,233.125,233.125,86.6894,-21.696,-999.0,0.7,-999.0,no,yes,no,300234066896220,GPS_Tracker,AWI,Polarstern,North
2022-08-21T04:00:02Z,2022,4,0,233.1667,233.1667,86.6866,-21.6948,-999.0,0.7,-999.0,no,yes,no,300234066896220,GPS_Tracker,AWI,Polarstern,North
2022-08-21T04:59:57Z,2022,5,0,233.2083,233.2083,86.684,-21.6956,-999.0,0.7,-999.0,no,yes,no,300234066896220,GPS_Tracker,AWI,Polarstern,North
2022-08-21T06:00:00Z,2022,6,0,233.25,233.25,86.6814,-21.697,-999.0,0.7,-999.0,no,yes,no,300234066896220,GPS_Tracker,AWI,Polarstern,North
2022-08-21T07:00:02Z,2022,7,0,233.2917,233.2917,86.679,-21.6992,-999.0,0.8,-999.0,no,yes,no,300234066896220,GPS_Tracker,AWI,Polarstern,North
2022-08-21T07:59:57Z,2022,8,0,233.3333,233.3333,86.6768,-21.7028,-999.0,0.7,-999.0,no,yes,no,300234066896220,GPS_Tracker,AWI,Polarstern,North
2022-08-21T09:00:00Z,2022,9,0,233.375,233.375,86.6748,-21.705,-999.0,0.8,-999.0,no,yes,no,300234066896220,GPS_Tracker,AWI,Polarstern,North
2022-08-21T10:00:02Z,2022,10,0,233.4167,233.4167,86.6728,-21.7028,-999.0,0.8,-999.0,no,yes,no,300234066896220,GPS_Tracker,AWI,Polarstern,North
2022-08-21T10:59:57Z,2022,11,0,233.4583,233.4583,86.6708,-21.6958,-999.0,0.8,-999.0,no,yes,no,300234066896220,GPS_Tracker,AWI,Polarstern,North
2022-08-21T12:00:00Z,2022,12,0,233.5,233.5,86.6688,-21.6854,-999.0,0.8,-999.0,no,yes,no,300234066896220,GPS_Tracker,AWI,Polarstern,North
2022-08-21T13:00:02Z,2022,13,0,233.5417,233.5417,86.6666,-21.6738,-999.0,0.8,-999.0,no,yes,no,300234066896220,GPS_Tracker,AWI,Polarstern,North
2022-08-21T13:59:57Z,2022,14,0,233.5833,233.5833,86.6642,-21.6622,-999.0,0.8,-999.0,no,yes,no,300234066896220,GPS_Tracker,AWI,Polarstern,North
2022-08-21T15:00:00Z,2022,15,0,233.625,233.625,86.6618,-21.6514,-999.0,0.8,-999.0,no,yes,no,300234066896220,GPS_Tracker,AWI,Polarstern,North
2022-08-21T16:00:02Z,2022,16,0,233.6667,233.6667,86.6592,-21.6442,-999.0,0.8,-999.0,no,yes,no,300234066896220,GPS_Tracker,AWI,Polarstern,North
2022-08-21T16:59:57Z,2022,17,0,233.7083,233.7083,86.6566,-21.6364,-999.0,0.8,-999.0,no,yes,no,300234066896220,GPS_Tracker,AWI,Polarstern,North
2022-08-21T18:00:00Z,2022,18,0,233.75,233.75,86.6542,-21.6248,-999.0,0.8,-999.0,no,yes,no,300234066896220,GPS_Tracker,AWI,Polarstern,North
2022-08-21T19:00:02Z,2022,19,0,233.7917,233.7917,86.6522,-21.6094,-999.0,0.8,-999.0,no,yes,no,300234066896220,GPS_Tracker,AWI,Polarstern,North
2022-08-21T19:59:57Z,2022,20,0,233.8333,233.8333,86.6502,-21.591,-999.0,0.8,-999.0,no,yes,no,300234066896220,GPS_Tracker,AWI,Polarstern,North
2022-08-21T21:00:00Z,2022,21,0,233.875,233.875,86.6482,-21.5696,-999.0,0.8,-999.0,no,yes,no,300234066896220,GPS_Tracker,AWI,Polarstern,North
2022-08-21T22:00:02Z,2022,22,0,233.9167,233.9167,86.6464,-21.5458,-999.0,0.8,-999.0,no,yes,no,300234066896220,GPS_Tracker,AWI,Polarstern,North
2022-08-21T22:59:57Z,2022,23,0,233.9583,233.9583,86.6442,-21.523,-999.0,0.8,-999.0,no,yes,no,300234066896220,GPS_Tracker,AWI,Polarstern,North
2022-08-22T00:00:00Z,2022,0,0,234.0,234.0,86.6422,-21.502,-999.0,0.8,-999.0,no,yes,no,300234066896220,GPS_Tracker,AWI,Polarstern,North
2022-08-22T01:00:02Z,2022,1,0,234.0417,234.0417,86.6402,-21.4814,-999.0,0.8,-999.0,no,yes,no,300234066896220,GPS_Tracker,AWI,Polarstern,North
2022-08-22T01:59:57Z,2022,2,0,234.0833,234.0833,86.6382,-21.4584,-999.0,0.8,-999.0,no,yes,no,300234066896220,GPS_Tracker,AWI,Polarstern,North
2022-08-22T03:00:00Z,2022,3,0,234.125,234.125,86.636,-21.4316,-999.0,0.8,-999.0,no,yes,no,300234066896220,GPS_Tracker,AWI,Polarstern,North
2022-08-22T04:00:02Z,2022,4,0,234.1667,234.1667,86.6338,-21.4004,-999.0,0.8,-999.0,no,yes,no,300234066896220,GPS_Tracker,AWI,Polarstern,North
2022-08-22T04:59:57Z,2022,5,0,234.2083,234.2083,86.6314,-21.3656,-999.0,0.7,-999.0,no,yes,no,300234066896220,GPS_Tracker,AWI,Polarstern,North